Location: Newark
(22.3060°N, 114.2134°E)
Time: 23:21:02
(UTC+00:00)

Vanguard 2 - Pass Details

Date: 08 August 2021
Orbit: 553 x 2937 km, 32.9° (Epoch: 26 September)

Event Time Altitude Azimuth Distance (km) Brightness Sun altitude
Rises 22:31:17 0° 302° (WNW) 2,737 10.0 6.5°
Reaches altitude 10° 22:33:23 10° 310° (NW) 1,909 9.3 7.0°
Maximum altitude 22:37:25 42° 22° (NNE) 978 8.6 7.9°
Drops below altitude 10° 22:42:57 10° 94° (E) 2,628 12.1 9.1°
Sets 22:46:20 0° 100° (E) 3,930 12.6 9.9°
